[[{"header":{"parameterUnit":"m.s-1","parameterCategory":2,"la1":30.2991,"la2":30.254,"lo1":-89.0895,"lo2":-89.0444,"dy":0.0017,"dx":0.0017,"nx":28,"ny":28,"refTime":"2025-04-29T21:00:00:Z","depth":"0","parameterNumber":2,"parameterNumberName":"U-component_of_CURRENTS"},"data":[0,0,0,0,0,0,0,0,0,0,0,0,0,0,0,0,0,0,0,0,0,0,0,0,0,0,0,0,0,0,0,0,0,0,0,0,0,0,0,0,0,0,0,0,0,0,0,0,0,0,0,0,0,0,0,0,0,0,-0.2696,-0.2696,0,-0.2719,-0.2719,-0.2719,-0.2676,-0.2675,-0.2673,-0.2672,-0.263,-0.263,-0.2631,0,0,0,0,0,0,0,0,0,0,0,0,0,-0.2588,-0.259,-0.2696,-0.2696,-0.2696,-0.2719,-0.2719,-0.2719,-0.2676,-0.2675,-0.2673,-0.2671,-0.263,-0.263,-0.2631,0,0,0,0,0,0,0,0,0,0,0,0,0,-0.2625,-0.2591,-0.2696,-0.2678,-0.2677,-0.2719,-0.2719,-0.272,-0.2677,-0.2674,-0.2672,-0.267,-0.263,-0.263,-0.2631,-0.2674,0,0,-0.2632,-0.2632,0,0,0,0,0,0,0,0,-0.2623,-0.2629,-0.268,-0.2679,-0.2678,-0.2693,-0.2666,-0.2701,-0.2677,-0.2676,-0.2672,-0.2669,-0.2647,-0.2646,-0.2655,-0.2672,-0.2671,-0.2632,-0.2632,-0.2632,-0.2632,0,0,0,0,0,0,0,-0.262,-0.2627,-0.2704,-0.2681,-0.2679,-0.266,-0.2663,-0.2673,-0.2671,-0.2676,-0.2673,-0.2677,-0.2646,-0.2655,-0.2654,-0.267,-0.2632,-0.2632,-0.2632,-0.2632,-0.2702,-0.2704,0,0,0,0,0,0,-0.2623,-0.2626,-0.2704,-0.2705,-0.2645,-0.2664,-0.2667,-0.269,-0.2673,-0.2669,-0.2679,-0.2675,-0.2656,-0.2653,-0.2652,-0.2678,-0.2632,-0.2632,-0.2632,-0.2701,-0.2703,-0.2705,0,0,0,0,0,0,-0.2621,-0.2631,-0.2703,-0.2665,-0.2672,-0.2668,-0.2694,-0.2691,-0.2693,-0.2676,-0.267,-0.2682,-0.2654,-0.2651,-0.2667,-0.2677,-0.2632,-0.2633,-0.2699,-0.2701,-0.2704,-0.2747,0,0,0,0,0,0,-0.2618,-0.263,-0.2652,-0.2666,-0.2675,-0.2738,-0.2696,-0.2693,-0.2699,-0.2694,-0.2677,-0.2671,-0.2652,-0.2667,-0.2668,-0.2677,-0.2633,-0.2697,-0.27,-0.2703,-0.2743,-0.275,-0.2757,0,0,0,0,0,-0.2615,-0.2665,-0.2653,-0.2663,-0.2704,-0.274,-0.2744,-0.2731,-0.2702,-0.2721,-0.2705,-0.2671,-0.2687,-0.267,-0.2669,-0.2678,-0.2695,-0.2699,-0.2703,-0.274,-0.2749,-0.2756,0,0,0,0,0,0,-0.2646,-0.2665,-0.2653,-0.271,-0.2723,-0.2732,-0.2751,-0.2737,-0.2742,-0.2729,-0.27,-0.2695,-0.2711,-0.2701,-0.2682,-0.2711,-0.2684,-0.2688,-0.2712,-0.272,-0.2727,-0.2717,-0.2633,0,0,0,0,0,-0.266,-0.2684,-0.2704,-0.2743,-0.2754,-0.2749,-0.276,-0.2752,-0.2756,-0.2754,-0.2741,-0.273,-0.2733,-0.2729,-0.2734,-0.2756,-0.274,-0.2762,-0.2769,-0.2774,-0.2768,-0.2774,-0.278,-0.2717,-0.2717,-0.2717,0,0,-0.2682,-0.2692,-0.2708,-0.2747,-0.2751,-0.2774,-0.2751,-0.2775,-0.2784,-0.2751,-0.2762,-0.2758,-0.2747,-0.2767,-0.2772,-0.2754,-0.2785,-0.2779,-0.2783,-0.2774,-0.2779,-0.2784,-0.2789,-0.272,-0.2719,-0.2719,0,0,-0.272,-0.2747,-0.2768,-0.2782,-0.2795,-0.2801,-0.2808,-0.2821,-0.2819,-0.284,-0.2813,-0.2817,-0.2824,-0.2816,-0.2811,-0.2863,-0.2825,-0.2864,-0.2883,-0.2889,-0.2893,-0.2897,-0.2885,-0.2887,-0.2862,-0.2862,-0.2863,0,-0.2736,-0.2764,-0.2783,-0.2801,-0.2809,-0.2811,-0.2831,-0.2846,-0.2859,-0.2863,-0.2847,-0.2858,-0.2845,-0.2858,-0.2869,-0.2874,-0.2867,-0.2848,-0.2895,-0.2899,-0.2902,-0.2888,-0.289,-0.2865,-0.2865,-0.2864,-0.2864,0,-0.2778,-0.2795,-0.2814,-0.2826,-0.2853,-0.2871,-0.2892,-0.2915,-0.2908,-0.2909,-0.2928,-0.2922,-0.2918,-0.2922,-0.2905,-0.2925,-0.291,-0.2905,-0.2869,-0.291,-0.2894,-0.2895,-0.2869,-0.2868,-0.2867,-0.2866,0,0,-0.2804,-0.2831,-0.2832,-0.2825,-0.2858,-0.288,-0.2918,-0.2946,-0.2959,-0.2973,-0.2981,-0.2989,-0.2975,-0.297,-0.2957,-0.2959,-0.2971,-0.294,-0.2939,-0.2916,-0.2973,-0.2863,-0.2853,-0.2976,-0.2976,-0.2977,-0.2952,0,-0.2809,-0.2824,-0.2855,-0.2872,-0.2874,-0.2907,-0.2945,-0.2976,-0.2991,-0.3011,-0.3007,-0.3014,-0.2997,-0.2991,-0.2995,-0.298,-0.2976,-0.2977,-0.2946,-0.2944,-0.2832,-0.2852,-0.2716,-0.2674,-0.2953,-0.2953,-0.2953,0,-0.2825,-0.282,-0.2828,-0.286,-0.2873,-0.2898,-0.2944,-0.298,-0.3023,-0.3038,-0.3049,-0.3047,-0.305,-0.3029,-0.3022,-0.3024,-0.2998,-0.2985,-0.2984,-0.2862,-0.2836,-0.2679,-0.2666,-0.265,-0.2955,-0.2955,-0.2955,0,-0.2785,-0.281,-0.2802,-0.2808,-0.2852,-0.2874,-0.2912,-0.2971,-0.3004,-0.3041,-0.306,-0.3073,-0.3069,-0.3058,-0.302,-0.3027,-0.3002,-0.3009,-0.2886,-0.2878,-0.2744,-0.2722,-0.2696,-0.2999,-0.2999,-0.2999,-0.2999,0,-0.2764,-0.2757,-0.2773,-0.2763,-0.277,-0.2833,-0.287,-0.2915,-0.2983,-0.301,-0.3054,-0.3064,-0.3078,-0.3063,-0.3031,-0.2947,-0.3008,-0.2881,-0.2863,-0.2755,-0.2736,-0.2699,-0.2733,-0.2998,-0.2998,-0.2998,-0.2999,0,-0.2709,-0.272,-0.2709,-0.2738,-0.2741,-0.2748,-0.2831,-0.2859,-0.2944,-0.2978,-0.299,-0.3056,-0.3029,-0.302,-0.2993,-0.2943,-0.283,-0.2839,-0.2698,-0.2662,-0.2518,-0.2559,-0.2514,-0.2442,-0.2704,-0.2701,-0.2699,0,-0.2653,-0.2639,-0.2663,-0.2641,-0.2643,-0.2667,-0.2683,-0.2799,-0.2837,-0.2955,-0.2954,-0.2974,-0.2925,-0.2852,-0.2769,-0.2677,-0.2708,-0.2528,-0.251,-0.2478,-0.2513,-0.2556,-0.2503,-0.2359,-0.2354,-0.235,-0.2347,0,-0.2516,-0.2549,-0.2546,-0.2528,-0.2521,-0.2541,-0.258,-0.2616,-0.2749,-0.2786,-0.2812,-0.2787,-0.2725,-0.257,-0.2474,-0.2411,-0.246,-0.2438,-0.2451,-0.2268,-0.2269,-0.22,-0.2412,-0.231,-0.2314,-0.2317,-0.2319,-0.232,-0.2384,-0.2365,-0.2371,-0.2347,-0.2371,-0.2369,-0.2343,-0.2425,-0.2456,-0.2478,-0.2578,-0.2493,-0.2438,-0.2259,-0.2198,-0.2069,-0.2163,-0.2029,-0.209,-0.2144,-0.2042,-0.2154,-0.2003,-0.2005,-0.2007,-0.2008,-0.2009,0,-0.2147,-0.2154,-0.2159,-0.2136,-0.2112,-0.2184,-0.222,-0.2172,-0.2141,-0.2213,-0.2192,-0.2123,-0.1981,-0.1958,-0.1845,-0.1762,-0.1738,-0.1752,-0.1801,-0.1768,-0.189,-0.1837,-0.1586,-0.1586,-0.1587,-0.1587,-0.1587,-0.1587,-0.2001,-0.1919,-0.1947,-0.1822,-0.1833,-0.172,-0.1697,-0.1683,-0.1708,-0.1648,-0.1638,-0.168,-0.1723,-0.1865,-0.1754,-0.1666,-0.1659,-0.16,-0.1661,-0.1776,-0.1808,-0.1839,-0.1796,-0.1541,-0.1541,-0.1452,-0.1452,-0.1452]},{"header":{"parameterUnit":"m.s-1","parameterCategory":2,"la1":30.2991,"la2":30.254,"lo1":-89.0895,"lo2":-89.0444,"dy":0.0017,"dx":0.0017,"nx":28,"ny":28,"refTime":"2025-04-29T21:00:00:Z","depth":"0","parameterNumber":3,"parameterNumberName":"V-component_of_CURRENTS"},"data":[0,0,0,0,0,0,0,0,0,0,0,0,0,0,0,0,0,0,0,0,0,0,0,0,0,0,0,0,0,0,0,0,0,0,0,0,0,0,0,0,0,0,0,0,0,0,0,0,0,0,0,0,0,0,0,0,0,0,0.0012,0.0013,0,0.0098,0.0099,0.01,0.0164,0.0165,0.0165,0.0165,0.0305,0.0308,0.0311,0,0,0,0,0,0,0,0,0,0,0,0,0,-0.0038,-0.0038,0.0012,0.0013,0.0014,0.0098,0.0099,0.01,0.0164,0.0165,0.0165,0.0165,0.0304,0.0308,0.0312,0,0,0,0,0,0,0,0,0,0,0,0,0,0.0011,-0.0038,0.0012,0.0054,0.0059,0.0097,0.0099,0.0101,0.0164,0.0165,0.0165,0.0166,0.0302,0.0307,0.0312,0.0332,0,0,0.0328,0.033,0,0,0,0,0,0,0,0,0.0008,0.0013,0.0047,0.0051,0.0056,0.0119,0.0132,0.018,0.0164,0.0126,0.0165,0.0166,0.0246,0.0256,0.0273,0.0338,0.0344,0.0328,0.0331,0.0333,0.0335,0,0,0,0,0,0,0,0.0004,0.001,0.0048,0.0048,0.0054,0.0089,0.0096,0.0142,0.0184,0.013,0.0134,0.014,0.0249,0.0268,0.0276,0.0346,0.0328,0.0332,0.0336,0.0337,0.0446,0.0446,0,0,0,0,0,0,-0.0014,0.0006,0.0045,0.0051,0.0031,0.0089,0.0097,0.01,0.0183,0.0195,0.0139,0.0143,0.0259,0.0271,0.0282,0.0307,0.0333,0.0338,0.0341,0.0446,0.0446,0.0446,0,0,0,0,0,0,-0.0015,-0.0011,0.0042,0.0029,0.0038,0.0088,0.0092,0.0101,0.0119,0.0189,0.0203,0.0146,0.026,0.0275,0.032,0.0313,0.034,0.0345,0.0446,0.0446,0.0446,0.0359,0,0,0,0,0,0,-0.0017,-0.0013,-0.0013,0.0027,0.0038,0.0052,0.0091,0.0103,0.0121,0.0126,0.02,0.0213,0.0261,0.0312,0.0325,0.032,0.0349,0.0446,0.0446,0.0446,0.0362,0.0356,0.035,0,0,0,0,0,-0.0019,-0.0035,-0.0014,-0.0009,0.0034,0.0051,0.0059,0.0099,0.012,0.0119,0.0175,0.0211,0.032,0.0316,0.0331,0.0328,0.0446,0.0446,0.0446,0.0365,0.0357,0.0351,0,0,0,0,0,0,-0.0051,-0.0029,-0.0005,-0.001,0.0016,0.0061,0.0062,0.0092,0.0134,0.0141,0.0212,0.0229,0.0264,0.0309,0.0303,0.0359,0.0388,0.0391,0.0321,0.0315,0.0309,0.0295,0.0353,0,0,0,0,0,-0.006,-0.007,-0.0033,-0.0036,-0.0028,0.0018,0.0031,0.0057,0.0097,0.0117,0.017,0.0227,0.0275,0.0303,0.035,0.0382,0.044,0.039,0.0384,0.0379,0.0378,0.0449,0.0449,0.0445,0.0445,0.0445,0,0,-0.007,-0.0062,-0.0063,-0.0045,-0.0021,-0.002,0.0027,0.0036,0.0045,0.0125,0.0154,0.0207,0.0278,0.0312,0.0332,0.0349,0.0413,0.0379,0.0373,0.0376,0.0449,0.0449,0.045,0.0444,0.0444,0.0444,0,0,-0.0118,-0.0091,-0.0122,-0.0105,-0.0084,-0.0053,-0.0056,-0.0014,0.0013,0.0046,0.0106,0.0156,0.0225,0.0277,0.0312,0.0305,0.0376,0.0316,0.0281,0.0349,0.035,0.0351,0.0432,0.0441,0.0317,0.0317,0.0317,0,-0.0132,-0.0158,-0.0126,-0.0148,-0.0136,-0.0075,-0.0093,-0.0059,-0.0004,0.0019,0.0041,0.0154,0.021,0.0266,0.0262,0.0291,0.0345,0.0298,0.0341,0.0343,0.0346,0.0429,0.044,0.0312,0.0313,0.0313,0.0314,0,-0.0205,-0.0212,-0.0229,-0.0232,-0.0215,-0.022,-0.0169,-0.0147,-0.0104,-0.006,-0.0001,0.0082,0.0152,0.0175,0.0217,0.0265,0.0302,0.032,0.0354,0.0341,0.043,0.0443,0.0306,0.0308,0.0309,0.031,0,0,-0.0265,-0.028,-0.0283,-0.0291,-0.0257,-0.0254,-0.0236,-0.02,-0.0183,-0.0116,-0.0082,0.0005,0.006,0.0104,0.017,0.0231,0.0301,0.0277,0.0282,0.035,0.0463,0.0501,0.0521,0.0323,0.0325,0.0326,0.0519,0,-0.0329,-0.0395,-0.0372,-0.0401,-0.0421,-0.0352,-0.0339,-0.0291,-0.0233,-0.0183,-0.0083,-0.0026,0.0031,0.0067,0.0135,0.0255,0.0331,0.0248,0.0472,0.048,0.0509,0.0535,0.0559,0.0734,0.0533,0.0535,0.0537,0,-0.0409,-0.0439,-0.0495,-0.0485,-0.0485,-0.0484,-0.0439,-0.0417,-0.0326,-0.0279,-0.0196,-0.0111,-0.0004,0.0042,0.0248,0.0191,0.0319,0.0418,0.0428,0.0502,0.0542,0.0714,0.0767,0.0934,0.0558,0.0556,0.0555,0,-0.0487,-0.0516,-0.0565,-0.0562,-0.0546,-0.0545,-0.0522,-0.045,-0.0428,-0.0332,-0.0298,-0.0159,-0.0075,0.0081,0.0289,0.0269,0.0526,0.0527,0.0693,0.0698,0.0783,0.0792,0.1018,0.0683,0.0682,0.0682,0.0681,0,-0.0565,-0.0596,-0.0606,-0.0631,-0.0665,-0.0618,-0.0624,-0.0581,-0.0512,-0.0473,-0.0352,-0.0274,-0.0062,0.0113,0.0284,0.0539,0.0532,0.0701,0.0751,0.0754,0.0758,0.0959,0.1011,0.0689,0.0687,0.0686,0.0685,0,-0.064,-0.065,-0.0703,-0.0708,-0.071,-0.073,-0.0701,-0.0697,-0.0623,-0.0564,-0.0535,-0.0346,-0.0111,0.0117,0.0405,0.0546,0.0884,0.0869,0.0864,0.0909,0.1177,0.1221,0.1498,0.1601,0.1066,0.1068,0.107,0,-0.0685,-0.0728,-0.0772,-0.0799,-0.0802,-0.0817,-0.0824,-0.0765,-0.0743,-0.059,-0.0561,-0.0329,-0.013,0.0295,0.0577,0.0894,0.1023,0.11,0.1059,0.1213,0.1301,0.1334,0.1402,0.1154,0.1156,0.1158,0.1159,0,-0.0756,-0.0776,-0.0815,-0.0881,-0.0906,-0.0927,-0.092,-0.0927,-0.0826,-0.0737,-0.0553,-0.0379,0.0031,0.0408,0.0799,0.0982,0.1208,0.1147,0.1319,0.14,0.1441,0.1556,0.1012,0.1176,0.1174,0.1173,0.1172,0.1172,-0.0787,-0.0837,-0.0889,-0.094,-0.097,-0.0997,-0.0988,-0.0953,-0.0883,-0.0695,-0.0547,-0.0218,0.0268,0.082,0.1026,0.143,0.1387,0.1551,0.16,0.1627,0.17,0.1191,0.139,0.139,0.139,0.1389,0.1389,0,-0.0806,-0.0864,-0.0936,-0.0974,-0.0999,-0.101,-0.1007,-0.0944,-0.0822,-0.0636,-0.0405,0.0168,0.0666,0.1108,0.1652,0.1877,0.192,0.1986,0.2049,0.2103,0.1681,0.1656,0.1907,0.1907,0.1907,0.1907,0.1906,0.1906,-0.0812,-0.0889,-0.0936,-0.0973,-0.099,-0.0975,-0.0961,-0.0845,-0.0691,-0.0317,0.0028,0.03,0.0881,0.1741,0.2264,0.2312,0.2509,0.2478,0.2596,0.23,0.2263,0.2227,0.2221,0.2585,0.2586,0.3008,0.3012,0.3015]}],[{"header":{"parameterUnit":"m.s-1","parameterCategory":2,"la1":30.2991,"la2":30.254,"lo1":-89.0895,"lo2":-89.0444,"dy":0.0017,"dx":0.0017,"nx":28,"ny":28,"refTime":"2025-04-29T21:00:00:Z","depth":"2","parameterNumber":2,"parameterNumberName":"U-component_of_CURRENTS"},"data":[0,0,0,0,0,0,0,0,0,0,0,0,0,0,0,0,0,0,0,0,0,0,0,0,0,0,0,0,0,0,0,0,0,0,0,0,0,0,0,0,0,0,0,0,0,0,0,0,0,0,0,0,0,0,0,0,0,0,-0.2423,-0.2423,0,-0.2472,-0.2472,-0.2473,-0.2447,-0.2446,-0.2445,-0.2444,-0.2421,-0.2422,-0.2422,0,0,0,0,0,0,0,0,0,0,0,0,0,-0.2305,-0.2307,-0.2423,-0.2423,-0.2424,-0.2472,-0.2472,-0.2473,-0.2447,-0.2446,-0.2445,-0.2443,-0.2421,-0.2422,-0.2422,0,0,0,0,0,0,0,0,0,0,0,0,0,-0.2352,-0.2307,-0.2422,-0.2419,-0.242,-0.2472,-0.2472,-0.2473,-0.2447,-0.2446,-0.2444,-0.2443,-0.2421,-0.2422,-0.2422,-0.2458,0,0,-0.2424,-0.2424,0,0,0,0,0,0,0,0,-0.235,-0.2356,-0.2419,-0.242,-0.242,-0.2454,-0.2423,-0.2465,-0.2448,-0.2434,-0.2444,-0.2442,-0.2429,-0.2428,-0.2438,-0.2457,-0.2456,-0.2424,-0.2424,-0.2425,-0.2425,0,0,0,0,0,0,0,-0.2346,-0.2354,-0.2439,-0.242,-0.2421,-0.2415,-0.242,-0.2431,-0.2436,-0.2435,-0.2434,-0.2444,-0.2428,-0.2438,-0.2438,-0.2456,-0.2424,-0.2425,-0.2425,-0.2425,-0.2502,-0.2504,0,0,0,0,0,0,-0.2348,-0.2352,-0.2438,-0.2441,-0.2383,-0.2419,-0.2424,-0.2443,-0.2438,-0.2437,-0.2446,-0.2443,-0.2438,-0.2437,-0.2437,-0.2473,-0.2425,-0.2425,-0.2426,-0.25,-0.2502,-0.2504,0,0,0,0,0,0,-0.2346,-0.2356,-0.2436,-0.2399,-0.2409,-0.2423,-0.2444,-0.2444,-0.2452,-0.2447,-0.2444,-0.2452,-0.2436,-0.2436,-0.2457,-0.2472,-0.2425,-0.2426,-0.2498,-0.2501,-0.2503,-0.2549,0,0,0,0,0,0,-0.2342,-0.2355,-0.2364,-0.2399,-0.2411,-0.2477,-0.2446,-0.2447,-0.2462,-0.2459,-0.2452,-0.2448,-0.2435,-0.2456,-0.2457,-0.2472,-0.2426,-0.2496,-0.25,-0.2503,-0.2545,-0.2553,-0.2559,0,0,0,0,0,-0.2338,-0.2367,-0.2364,-0.2374,-0.2425,-0.2479,-0.2485,-0.2486,-0.2464,-0.2483,-0.2476,-0.2448,-0.2476,-0.2458,-0.2459,-0.2474,-0.2495,-0.2499,-0.2502,-0.2542,-0.2551,-0.2559,0,0,0,0,0,0,-0.232,-0.2369,-0.2366,-0.2407,-0.2441,-0.2475,-0.2494,-0.2492,-0.2503,-0.2494,-0.2474,-0.2473,-0.2496,-0.2488,-0.2468,-0.2508,-0.248,-0.2484,-0.251,-0.2518,-0.2525,-0.2516,-0.2427,0,0,0,0,0,-0.2322,-0.2352,-0.2397,-0.2426,-0.2449,-0.2469,-0.2487,-0.2494,-0.2512,-0.2514,-0.251,-0.2508,-0.2517,-0.2517,-0.2527,-0.2552,-0.2535,-0.2563,-0.257,-0.2576,-0.2571,-0.2576,-0.2582,-0.2517,-0.2517,-0.2517,0,0,-0.231,-0.2352,-0.2359,-0.2424,-0.2448,-0.2488,-0.2476,-0.2517,-0.2538,-0.2512,-0.2535,-0.2535,-0.2531,-0.2558,-0.2567,-0.2549,-0.2587,-0.258,-0.2585,-0.2577,-0.258,-0.2586,-0.2592,-0.2519,-0.2519,-0.2518,0,0,-0.233,-0.2356,-0.2391,-0.2429,-0.2484,-0.2505,-0.2519,-0.256,-0.2567,-0.2601,-0.2583,-0.2595,-0.2611,-0.261,-0.261,-0.2664,-0.2626,-0.2667,-0.2688,-0.2693,-0.2698,-0.2702,-0.2687,-0.269,-0.2665,-0.2666,-0.2666,0,-0.2315,-0.2369,-0.2408,-0.2462,-0.2488,-0.2513,-0.2552,-0.2577,-0.2614,-0.2624,-0.2613,-0.2641,-0.2634,-0.2657,-0.2671,-0.2677,-0.2666,-0.2653,-0.27,-0.2704,-0.2707,-0.2691,-0.2693,-0.2668,-0.2668,-0.2668,-0.2667,0,-0.236,-0.2403,-0.2434,-0.2501,-0.2539,-0.2581,-0.2624,-0.2653,-0.266,-0.2675,-0.2706,-0.2708,-0.2716,-0.2723,-0.2709,-0.2734,-0.2715,-0.271,-0.2673,-0.2716,-0.2697,-0.2698,-0.2672,-0.2671,-0.267,-0.267,0,0,-0.2302,-0.2438,-0.2444,-0.2479,-0.256,-0.2594,-0.2645,-0.2694,-0.2714,-0.2745,-0.2765,-0.2785,-0.2777,-0.2777,-0.2768,-0.2771,-0.2782,-0.2748,-0.2747,-0.2722,-0.2779,-0.2679,-0.267,-0.2784,-0.2785,-0.2785,-0.2756,0,-0.2312,-0.2427,-0.2484,-0.2549,-0.2594,-0.2642,-0.2686,-0.2731,-0.2758,-0.2789,-0.2797,-0.2815,-0.2801,-0.2801,-0.2806,-0.279,-0.2788,-0.279,-0.2751,-0.2749,-0.2646,-0.2669,-0.2465,-0.2414,-0.2756,-0.2756,-0.2756,0,-0.2316,-0.2391,-0.248,-0.2576,-0.2598,-0.2637,-0.2698,-0.2742,-0.2798,-0.282,-0.2843,-0.2849,-0.286,-0.284,-0.2834,-0.2835,-0.2808,-0.2794,-0.2792,-0.268,-0.2651,-0.2428,-0.2402,-0.2758,-0.2758,-0.2757,-0.2757,0,-0.2241,-0.2373,-0.2444,-0.2477,-0.2593,-0.2623,-0.2672,-0.274,-0.2776,-0.2828,-0.2852,-0.2875,-0.2877,-0.2866,-0.283,-0.2835,-0.281,-0.2813,-0.2699,-0.2691,-0.2498,-0.2472,-0.2804,-0.2804,-0.2804,-0.2804,-0.2804,0,-0.2216,-0.2251,-0.2417,-0.2439,-0.2498,-0.2586,-0.2636,-0.269,-0.2764,-0.2793,-0.2849,-0.2863,-0.2883,-0.2872,-0.284,-0.276,-0.2816,-0.2696,-0.2677,-0.2508,-0.2485,-0.2769,-0.2766,-0.2803,-0.2803,-0.2803,-0.2803,0,-0.2091,-0.2219,-0.2285,-0.2423,-0.2463,-0.2491,-0.2608,-0.2639,-0.2728,-0.2765,-0.278,-0.2852,-0.2829,-0.2828,-0.2802,-0.2754,-0.2701,-0.2657,-0.2447,-0.2403,-0.2578,-0.2578,-0.2533,-0.2529,-0.2526,-0.2523,-0.2521,0,-0.2049,-0.2079,-0.2238,-0.228,-0.2333,-0.2408,-0.2455,-0.2587,-0.2624,-0.2738,-0.2736,-0.2763,-0.2722,-0.2658,-0.2578,-0.2494,-0.26,-0.2285,-0.2256,-0.2564,-0.2551,-0.2555,-0.2559,-0.2022,-0.2015,-0.201,-0.2006,0,-0.1916,-0.1979,-0.203,-0.2131,-0.2199,-0.2282,-0.2362,-0.2396,-0.253,-0.2568,-0.2586,-0.2566,-0.2515,-0.2334,-0.2255,-0.2187,-0.2284,-0.2178,-0.2549,-0.2124,-0.208,-0.2068,-0.2089,-0.1961,-0.1966,-0.1969,-0.1972,-0.1974,-0.1796,-0.1801,-0.1888,-0.1955,-0.2037,-0.21,-0.2097,-0.2196,-0.2229,-0.224,-0.2341,-0.224,-0.2234,-0.1978,-0.1883,-0.1819,-0.1973,-0.1906,-0.1922,-0.1944,-0.1892,-0.1845,-0.1672,-0.1675,-0.1677,-0.1679,-0.1681,0,-0.1655,-0.167,-0.1712,-0.1792,-0.1796,-0.1913,-0.1982,-0.1942,-0.1907,-0.1966,-0.194,-0.1731,-0.1613,-0.1618,-0.1434,-0.1409,-0.1404,-0.1371,-0.137,-0.1414,-0.1453,-0.1379,-0.1021,-0.1019,-0.1018,-0.1016,0,0,-0.1581,-0.1557,-0.1574,-0.1529,-0.1568,-0.1522,-0.1523,-0.15,-0.1503,-0.1426,-0.1385,-0.1491,-0.1537,-0.1271,-0.122,-0.1089,-0.1238,-0.1032,-0.1556,-0.1595,-0.1633,-0.175,-0.1682,0,0,0,0,0]},{"header":{"parameterUnit":"m.s-1","parameterCategory":2,"la1":30.2991,"la2":30.254,"lo1":-89.0895,"lo2":-89.0444,"dy":0.0017,"dx":0.0017,"nx":28,"ny":28,"refTime":"2025-04-29T21:00:00:Z","depth":"2","parameterNumber":3,"parameterNumberName":"V-component_of_CURRENTS"},"data":[0,0,0,0,0,0,0,0,0,0,0,0,0,0,0,0,0,0,0,0,0,0,0,0,0,0,0,0,0,0,0,0,0,0,0,0,0,0,0,0,0,0,0,0,0,0,0,0,0,0,0,0,0,0,0,0,0,0,-0.0144,-0.0143,0,-0.0055,-0.0054,-0.0053,0.0006,0.0007,0.0007,0.0008,0.0135,0.0138,0.0141,0,0,0,0,0,0,0,0,0,0,0,0,0,-0.021,-0.0209,-0.0144,-0.0143,-0.0142,-0.0056,-0.0054,-0.0053,0.0006,0.0007,0.0007,0.0008,0.0134,0.0137,0.0141,0,0,0,0,0,0,0,0,0,0,0,0,0,-0.0157,-0.0209,-0.0145,-0.0102,-0.0098,-0.0056,-0.0054,-0.0053,0.0006,0.0007,0.0007,0.0008,0.0133,0.0137,0.0141,0.0158,0,0,0.0155,0.0157,0,0,0,0,0,0,0,0,-0.016,-0.0155,-0.011,-0.0105,-0.01,-0.0035,-0.0031,0.0019,0.0006,-0.0033,0.0008,0.0008,0.0081,0.009,0.0105,0.0164,0.0169,0.0156,0.0158,0.016,0.0162,0,0,0,0,0,0,0,-0.0164,-0.0158,-0.0109,-0.0109,-0.0103,-0.007,-0.0062,-0.0021,0.002,-0.003,-0.0025,-0.0016,0.0084,0.01,0.0108,0.0171,0.0156,0.016,0.0162,0.0164,0.0269,0.0269,0,0,0,0,0,0,-0.0179,-0.0162,-0.0112,-0.0106,-0.013,-0.0069,-0.0061,-0.0056,0.0019,0.0031,-0.0016,-0.0013,0.0092,0.0103,0.0113,0.0143,0.016,0.0165,0.0167,0.0269,0.0269,0.0269,0,0,0,0,0,0,-0.0181,-0.0176,-0.0115,-0.0132,-0.0122,-0.0069,-0.0065,-0.0055,-0.0037,0.0029,0.0042,-0.0009,0.0093,0.0107,0.0149,0.0148,0.0167,0.0171,0.0269,0.0269,0.0269,0.0199,0,0,0,0,0,0,-0.0183,-0.0177,-0.0185,-0.0133,-0.0122,-0.0101,-0.0065,-0.0054,-0.0033,-0.0028,0.0039,0.0052,0.0095,0.0142,0.0154,0.0155,0.0174,0.0269,0.0269,0.0269,0.0201,0.0197,0.0193,0,0,0,0,0,-0.0186,-0.0204,-0.0186,-0.018,-0.0133,-0.0102,-0.0093,-0.0053,-0.0033,-0.0033,0.0018,0.005,0.0151,0.0146,0.016,0.0162,0.0268,0.0269,0.0269,0.0203,0.0197,0.0193,0,0,0,0,0,0,-0.0241,-0.0197,-0.0178,-0.0182,-0.0148,-0.0092,-0.0089,-0.0059,-0.0019,-0.0013,0.0051,0.0067,0.0102,0.0142,0.0134,0.0193,0.0215,0.0218,0.0161,0.0156,0.0152,0.0138,0.0178,0,0,0,0,0,-0.0257,-0.0256,-0.0206,-0.0211,-0.0196,-0.0143,-0.0127,-0.0098,-0.0053,-0.0035,0.0014,0.0068,0.0113,0.0141,0.0184,0.0216,0.0262,0.0227,0.0223,0.0219,0.0217,0.028,0.0281,0.0269,0.0269,0.0269,0,0,-0.0283,-0.0256,-0.0258,-0.0222,-0.0191,-0.0177,-0.0132,-0.0112,-0.0097,-0.0027,0.0004,0.0052,0.0118,0.0153,0.0173,0.0187,0.0248,0.0219,0.0215,0.0216,0.028,0.0282,0.0283,0.0269,0.0269,0.0269,0,0,-0.0328,-0.0306,-0.0316,-0.0288,-0.0245,-0.0211,-0.0208,-0.0153,-0.0127,-0.0092,-0.0036,0.0013,0.0077,0.0129,0.0163,0.0162,0.0219,0.0173,0.0146,0.0206,0.0208,0.021,0.027,0.0278,0.0175,0.0175,0.0175,0,-0.0361,-0.0359,-0.0317,-0.031,-0.0292,-0.023,-0.0231,-0.0196,-0.0135,-0.0112,-0.0093,0.0015,0.0068,0.0126,0.0126,0.0153,0.0194,0.0157,0.02,0.0203,0.0206,0.0268,0.0277,0.0172,0.0172,0.0172,0.0173,0,-0.0404,-0.0398,-0.04,-0.037,-0.0349,-0.0339,-0.0282,-0.026,-0.022,-0.0175,-0.0117,-0.0039,0.0027,0.0051,0.009,0.0139,0.0163,0.0182,0.0209,0.0203,0.0268,0.0279,0.0167,0.0168,0.0169,0.017,0,0,-0.0489,-0.0442,-0.0441,-0.0433,-0.0376,-0.0366,-0.0342,-0.0299,-0.0283,-0.0215,-0.0182,-0.0095,-0.0047,-0.0005,0.0056,0.0113,0.0172,0.015,0.0154,0.0202,0.0306,0.0329,0.0344,0.0195,0.0197,0.0198,0.0343,0,-0.0534,-0.0537,-0.0497,-0.0502,-0.0497,-0.0434,-0.0418,-0.0371,-0.0318,-0.0271,-0.0176,-0.0122,-0.0069,-0.0036,0.0029,0.0133,0.0198,0.0131,0.0312,0.0318,0.0333,0.0357,0.0314,0.044,0.0355,0.0357,0.0358,0,-0.0592,-0.058,-0.0592,-0.0558,-0.0552,-0.0546,-0.0506,-0.0481,-0.0397,-0.0354,-0.0276,-0.0198,-0.0098,-0.0056,0.0124,0.0076,0.0184,0.0268,0.0276,0.033,0.0361,0.0434,0.0464,0.0377,0.0376,0.0374,0.0373,0,-0.0674,-0.065,-0.0661,-0.0648,-0.0602,-0.0601,-0.0577,-0.0511,-0.0491,-0.04,-0.0371,-0.0242,-0.0169,-0.003,0.0148,0.0137,0.0348,0.0357,0.0486,0.0489,0.0506,0.0507,0.049,0.049,0.049,0.0489,0.0489,0,-0.0741,-0.0749,-0.0702,-0.0709,-0.0727,-0.0669,-0.0675,-0.0634,-0.057,-0.054,-0.042,-0.0359,-0.016,-0.0012,0.0139,0.0349,0.0348,0.0491,0.0531,0.048,0.0478,0.0463,0.0457,0.0495,0.0494,0.0492,0.0492,0,-0.0833,-0.0798,-0.0813,-0.0777,-0.0769,-0.0785,-0.0749,-0.0745,-0.0677,-0.0632,-0.0605,-0.0436,-0.0239,-0.0032,0.0217,0.0342,0.0535,0.0614,0.0541,0.057,0.0638,0.0627,0.0765,0.0767,0.0769,0.077,0.0772,0,-0.0879,-0.0894,-0.088,-0.0894,-0.0881,-0.0882,-0.0881,-0.0814,-0.0797,-0.0672,-0.0652,-0.0454,-0.0293,0.0072,0.0325,0.0601,0.0606,0.0718,0.069,0.0642,0.0668,0.0654,0.0642,0.0691,0.0691,0.0692,0.0692,0,-0.0964,-0.0959,-0.097,-0.1007,-0.1015,-0.1007,-0.099,-0.0993,-0.0898,-0.0828,-0.0689,-0.0549,-0.0196,0.0104,0.0451,0.0601,0.0663,0.0735,0.0725,0.0616,0.0581,0.0603,0.0592,0.0695,0.0695,0.0695,0.0695,0.0695,-0.1025,-0.1058,-0.1079,-0.1113,-0.1128,-0.1124,-0.1134,-0.1067,-0.1012,-0.0872,-0.0724,-0.0462,-0.0201,0.0306,0.0529,0.0743,0.0744,0.0796,0.0791,0.0787,0.0741,0.0709,0.084,0.084,0.0841,0.0841,0.0841,0,-0.1085,-0.1121,-0.1176,-0.1213,-0.1257,-0.1222,-0.1203,-0.1172,-0.1089,-0.0863,-0.068,-0.035,0.0005,0.029,0.0631,0.0817,0.0792,0.0841,0.0768,0.0763,0.076,0.0709,0.0802,0.0802,0.0803,0.0803,0,0,-0.1115,-0.1185,-0.1215,-0.1311,-0.1339,-0.1357,-0.1344,-0.1246,-0.1087,-0.0859,-0.0612,-0.0313,0.0034,0.0264,0.0484,0.066,0.0659,0.067,0.068,0.056,0.0554,0.0712,0.0626,0,0,0,0,0]}],[{"header":{"parameterUnit":"m.s-1","parameterCategory":2,"la1":30.2991,"la2":30.254,"lo1":-89.0895,"lo2":-89.0444,"dy":0.0017,"dx":0.0017,"nx":28,"ny":28,"refTime":"2025-04-29T21:00:00:Z","depth":"4","parameterNumber":2,"parameterNumberName":"U-component_of_CURRENTS"},"data":[0,0,0,0,0,0,0,0,0,0,0,0,0,0,0,0,0,0,0,0,0,0,0,0,0,0,0,0,0,0,0,0,0,0,0,0,0,0,0,0,0,0,0,0,0,0,0,0,0,0,0,0,0,0,0,0,0,0,-0.1708,-0.1709,0,-0.18,-0.1801,-0.1802,-0.1842,-0.1842,-0.1842,-0.1843,-0.1901,-0.1903,-0.1904,0,0,0,0,0,0,0,0,0,0,0,0,0,-0.1575,-0.1577,-0.1707,-0.1709,-0.171,-0.18,-0.1801,-0.1802,-0.1842,-0.1842,-0.1843,-0.1843,-0.1901,-0.1903,-0.1904,0,0,0,0,0,0,0,0,0,0,0,0,0,-0.1644,-0.1578,-0.1707,-0.1744,-0.1748,-0.18,-0.1801,-0.1802,-0.1842,-0.1842,-0.1843,-0.1843,-0.19,-0.1902,-0.1904,-0.1912,0,0,-0.1911,-0.1912,0,0,0,0,0,0,0,0,-0.164,-0.1648,-0.1737,-0.1741,-0.1747,-0.1813,-0.1776,-0.1839,-0.1842,-0.1803,-0.1843,-0.1843,-0.1871,-0.1875,-0.1888,-0.1915,-0.1918,-0.1911,-0.1912,-0.1913,-0.1914,0,0,0,0,0,0,0,-0.1635,-0.1644,-0.1741,-0.1739,-0.1744,-0.1759,-0.1769,-0.1788,-0.1831,-0.1806,-0.181,-0.1826,-0.1873,-0.1886,-0.1889,-0.1919,-0.1911,-0.1913,-0.1914,-0.1915,-0.204,-0.2042,0,0,0,0,0,0,-0.163,-0.164,-0.1738,-0.1744,-0.1696,-0.1762,-0.1772,-0.1789,-0.1832,-0.184,-0.1826,-0.1828,-0.1882,-0.1887,-0.1892,-0.1977,-0.1913,-0.1915,-0.1916,-0.2038,-0.204,-0.2042,0,0,0,0,0,0,-0.1627,-0.1638,-0.1734,-0.1696,-0.171,-0.1764,-0.1782,-0.179,-0.1832,-0.1847,-0.1854,-0.1862,-0.1882,-0.1889,-0.1942,-0.1977,-0.1916,-0.1918,-0.2035,-0.2038,-0.2041,-0.2101,0,0,0,0,0,0,-0.1622,-0.1636,-0.1652,-0.1696,-0.1712,-0.1787,-0.1782,-0.1792,-0.1841,-0.1845,-0.188,-0.1884,-0.1883,-0.1939,-0.1944,-0.1979,-0.192,-0.2033,-0.2037,-0.204,-0.2097,-0.2106,-0.2114,0,0,0,0,0,-0.1617,-0.1636,-0.1653,-0.1665,-0.1731,-0.1789,-0.1799,-0.1835,-0.1843,-0.1871,-0.1898,-0.1885,-0.1967,-0.1943,-0.1948,-0.1984,-0.2031,-0.2036,-0.204,-0.2093,-0.2104,-0.2114,0,0,0,0,0,0,-0.1581,-0.1643,-0.1662,-0.1698,-0.1752,-0.1798,-0.1828,-0.1853,-0.1897,-0.1907,-0.1912,-0.1919,-0.1979,-0.1977,-0.195,-0.2033,-0.1996,-0.2002,-0.2035,-0.2045,-0.2054,-0.2043,-0.1922,0,0,0,0,0,-0.1582,-0.1619,-0.1678,-0.171,-0.1739,-0.1789,-0.1819,-0.1852,-0.1894,-0.1915,-0.1942,-0.197,-0.1998,-0.2019,-0.2043,-0.2089,-0.2067,-0.2116,-0.2125,-0.2132,-0.2129,-0.2134,-0.2142,-0.2057,-0.2057,-0.2057,0,0,-0.1577,-0.1618,-0.1638,-0.1707,-0.1748,-0.1801,-0.1808,-0.1871,-0.1918,-0.1913,-0.1985,-0.2004,-0.2018,-0.2072,-0.2097,-0.2077,-0.2145,-0.2138,-0.2144,-0.2136,-0.214,-0.2148,-0.2155,-0.2061,-0.206,-0.2059,0,0,-0.1589,-0.1624,-0.1664,-0.1716,-0.1795,-0.1827,-0.1853,-0.1924,-0.1959,-0.2029,-0.2036,-0.2079,-0.213,-0.2145,-0.2155,-0.2227,-0.2192,-0.2241,-0.2275,-0.2281,-0.2288,-0.2293,-0.227,-0.2273,-0.2244,-0.2244,-0.2244,0,-0.1582,-0.1641,-0.1685,-0.1743,-0.1788,-0.1842,-0.1898,-0.1943,-0.2025,-0.2055,-0.2063,-0.2146,-0.2161,-0.221,-0.2237,-0.2246,-0.2232,-0.2232,-0.229,-0.2295,-0.2299,-0.2275,-0.2277,-0.2248,-0.2247,-0.2247,-0.2246,0,-0.1625,-0.1685,-0.1715,-0.1803,-0.1853,-0.1915,-0.1983,-0.2039,-0.2085,-0.2126,-0.2202,-0.223,-0.2271,-0.229,-0.2285,-0.2332,-0.2306,-0.2299,-0.2257,-0.2311,-0.2282,-0.2283,-0.2252,-0.2251,-0.225,-0.2249,0,0,-0.1571,-0.1718,-0.173,-0.1788,-0.1895,-0.1938,-0.2018,-0.2097,-0.2145,-0.2221,-0.2274,-0.2335,-0.2349,-0.2361,-0.2369,-0.2378,-0.2398,-0.2355,-0.2354,-0.232,-0.2391,-0.2228,-0.2213,-0.2401,-0.2402,-0.2403,-0.2356,0,-0.1595,-0.1711,-0.1774,-0.1876,-0.1939,-0.2013,-0.2076,-0.2153,-0.2214,-0.2278,-0.2318,-0.2373,-0.2376,-0.2399,-0.2414,-0.2404,-0.2405,-0.2409,-0.2355,-0.2352,-0.2191,-0.2211,-0.2405,-0.2357,-0.2357,-0.2357,-0.2357,0,-0.1602,-0.169,-0.1799,-0.1925,-0.1956,-0.2021,-0.2121,-0.2185,-0.2276,-0.2323,-0.2384,-0.2414,-0.2455,-0.2443,-0.2451,-0.2454,-0.2428,-0.2412,-0.241,-0.2234,-0.2191,-0.2295,-0.2358,-0.2358,-0.2358,-0.2358,-0.2358,0,-0.1532,-0.169,-0.1778,-0.1829,-0.1981,-0.2036,-0.2103,-0.2202,-0.2252,-0.2349,-0.2388,-0.2446,-0.247,-0.2467,-0.2441,-0.2452,-0.242,-0.2429,-0.2255,-0.2243,-0.2377,-0.2372,-0.2421,-0.2421,-0.2422,-0.2422,-0.2422,0,-0.1509,-0.1581,-0.1765,-0.1814,-0.1912,-0.2016,-0.21,-0.2174,-0.2268,-0.2306,-0.2401,-0.2419,-0.2479,-0.247,-0.2444,-0.2333,-0.242,-0.2248,-0.2218,-0.2404,-0.2402,-0.2377,-0.2372,-0.242,-0.242,-0.2421,-0.2421,0,-0.141,-0.1536,-0.1647,-0.1826,-0.1885,-0.1947,-0.2091,-0.2134,-0.2241,-0.2289,-0.2318,-0.2403,-0.238,-0.24,-0.2378,-0.2308,-0.2238,-0.2177,-0.2352,-0.2335,-0.2059,-0.2059,-0.1982,-0.1976,-0.1971,-0.1966,-0.1963,0,-0.1373,-0.1428,-0.1628,-0.1687,-0.1776,-0.1893,-0.1956,-0.2099,-0.2132,-0.2245,-0.2237,-0.2276,-0.2305,-0.2128,-0.2182,-0.2107,-0.2086,-0.2043,-0.2072,-0.2035,-0.2014,-0.2022,-0.2029,-0.1954,-0.1953,-0.1951,-0.195,0,-0.1293,-0.1372,-0.1453,-0.158,-0.1676,-0.1771,-0.187,-0.1882,-0.2011,-0.2138,-0.2082,-0.2061,-0.2028,-0.2001,-0.195,-0.1907,-0.2072,-0.1988,-0.2,-0.2027,-0.2,-0.1987,-0.1999,-0.1932,-0.1935,-0.1936,-0.1937,0,-0.1216,-0.1247,-0.1353,-0.1445,-0.155,-0.1594,-0.1684,-0.1714,-0.1769,-0.1897,-0.1867,-0.1907,-0.1986,-0.1894,-0.1848,-0.1789,-0.1776,-0.1729,-0.1754,-0.1775,-0.1731,-0.1668,-0.1457,0,0,0,0,0,-0.1139,-0.115,-0.1211,-0.1301,-0.1386,-0.1452,-0.1589,-0.1675,-0.1812,-0.1712,-0.1781,-0.1735,-0.1676,-0.1706,-0.1599,-0.1772,-0.1792,-0.1645,-0.1755,-0.1831,-0.1852,-0.1821,0,0,0,0,0,0,-0.1085,-0.1133,-0.1157,-0.1144,-0.1164,-0.1253,-0.1332,-0.1441,-0.1399,-0.1534,-0.1501,-0.1612,-0.1574,-0.1679,-0.1548,-0.1559,-0.1592,-0.1687,-0.1682,-0.1819,-0.1838,-0.1855,-0.1831,0,0,0,0,0]},{"header":{"parameterUnit":"m.s-1","parameterCategory":2,"la1":30.2991,"la2":30.254,"lo1":-89.0895,"lo2":-89.0444,"dy":0.0017,"dx":0.0017,"nx":28,"ny":28,"refTime":"2025-04-29T21:00:00:Z","depth":"4","parameterNumber":3,"parameterNumberName":"V-component_of_CURRENTS"},"data":[0,0,0,0,0,0,0,0,0,0,0,0,0,0,0,0,0,0,0,0,0,0,0,0,0,0,0,0,0,0,0,0,0,0,0,0,0,0,0,0,0,0,0,0,0,0,0,0,0,0,0,0,0,0,0,0,0,0,-0.0165,-0.0165,0,-0.0099,-0.0098,-0.0097,-0.0055,-0.0054,-0.0054,-0.0054,0.0045,0.0047,0.005,0,0,0,0,0,0,0,0,0,0,0,0,0,-0.0215,-0.0215,-0.0166,-0.0165,-0.0164,-0.0099,-0.0098,-0.0097,-0.0055,-0.0054,-0.0054,-0.0054,0.0044,0.0047,0.005,0,0,0,0,0,0,0,0,0,0,0,0,0,-0.0176,-0.0214,-0.0166,-0.0135,-0.0131,-0.0099,-0.0098,-0.0097,-0.0055,-0.0054,-0.0054,-0.0054,0.0043,0.0047,0.005,0.0065,0,0,0.0061,0.0063,0,0,0,0,0,0,0,0,-0.0178,-0.0174,-0.014,-0.0137,-0.0133,-0.0085,-0.0079,-0.0041,-0.0055,-0.0084,-0.0054,-0.0053,0.0004,0.0011,0.0022,0.0069,0.0074,0.0062,0.0064,0.0065,0.0066,0,0,0,0,0,0,0,-0.0181,-0.0176,-0.0139,-0.0139,-0.0135,-0.011,-0.0105,-0.0072,-0.0042,-0.0081,-0.0078,-0.0071,0.0007,0.0019,0.0025,0.0075,0.0062,0.0065,0.0067,0.0068,0.0159,0.0159,0,0,0,0,0,0,-0.0192,-0.0179,-0.0141,-0.0137,-0.0155,-0.011,-0.0104,-0.0101,-0.0043,-0.0034,-0.0071,-0.0069,0.0012,0.0021,0.0029,0.0058,0.0065,0.0069,0.0071,0.0159,0.0159,0.0159,0,0,0,0,0,0,-0.0193,-0.0189,-0.0144,-0.0156,-0.0149,-0.011,-0.0107,-0.0099,-0.0087,-0.0036,-0.0026,-0.0066,0.0013,0.0024,0.0058,0.0062,0.007,0.0074,0.0158,0.0159,0.0159,0.0111,0,0,0,0,0,0,-0.0195,-0.019,-0.02,-0.0157,-0.0148,-0.0133,-0.0107,-0.0098,-0.0083,-0.008,-0.0028,-0.0019,0.0014,0.0052,0.0061,0.0067,0.0076,0.0158,0.0158,0.0159,0.0112,0.011,0.0107,0,0,0,0,0,-0.0197,-0.0209,-0.0201,-0.0196,-0.0161,-0.0133,-0.0127,-0.0097,-0.0084,-0.0084,-0.0045,-0.002,0.0062,0.0055,0.0066,0.0073,0.0158,0.0158,0.0159,0.0113,0.011,0.0107,0,0,0,0,0,0,-0.0239,-0.0205,-0.0195,-0.0197,-0.0172,-0.0126,-0.0124,-0.0102,-0.0072,-0.0067,-0.0019,-0.0006,0.0025,0.0055,0.0046,0.0101,0.0115,0.0117,0.0076,0.0074,0.0071,0.0058,0.0079,0,0,0,0,0,-0.0253,-0.0251,-0.0214,-0.0218,-0.0207,-0.0168,-0.0155,-0.0133,-0.0097,-0.0083,-0.0046,-0.0003,0.0035,0.0058,0.0093,0.0122,0.0153,0.0135,0.0132,0.013,0.0127,0.0178,0.018,0.0161,0.0161,0.0161,0,0,-0.0272,-0.0252,-0.0253,-0.0227,-0.0204,-0.0191,-0.0159,-0.0142,-0.0129,-0.0077,-0.0052,-0.0013,0.004,0.0072,0.009,0.0099,0.0151,0.013,0.0128,0.0126,0.0179,0.0181,0.0182,0.0161,0.0161,0.0161,0,0,-0.03,-0.029,-0.0294,-0.0273,-0.0242,-0.0216,-0.0213,-0.017,-0.0151,-0.0122,-0.0079,-0.0037,0.0015,0.0059,0.0088,0.0094,0.0133,0.0104,0.0086,0.0136,0.0138,0.014,0.0175,0.0181,0.0107,0.0107,0.0107,0,-0.0326,-0.0322,-0.0293,-0.0285,-0.0272,-0.0229,-0.0227,-0.02,-0.0152,-0.0135,-0.0122,-0.0033,0.0011,0.0064,0.0067,0.0089,0.0116,0.0091,0.0132,0.0135,0.0138,0.0174,0.018,0.0105,0.0105,0.0105,0.0106,0,-0.0347,-0.0345,-0.0344,-0.0321,-0.0306,-0.0297,-0.0255,-0.024,-0.0212,-0.0178,-0.013,-0.0066,-0.0012,0.0011,0.0042,0.0087,0.0098,0.0118,0.0135,0.0137,0.0175,0.0182,0.0102,0.0102,0.0103,0.0104,0,0,-0.0399,-0.0368,-0.0369,-0.0365,-0.0324,-0.0315,-0.0296,-0.0264,-0.0253,-0.02,-0.0174,-0.0098,-0.0062,-0.0027,0.0024,0.0072,0.0117,0.0098,0.0102,0.0125,0.0215,0.0187,0.0193,0.0141,0.0142,0.0143,0.023,0,-0.0425,-0.0428,-0.0399,-0.0403,-0.04,-0.0358,-0.0346,-0.0311,-0.0275,-0.0242,-0.0164,-0.0122,-0.0076,-0.005,0.0006,0.0088,0.0136,0.0091,0.0217,0.0221,0.019,0.0201,0.0147,0.0236,0.0238,0.024,0.0241,0,-0.0455,-0.045,-0.0464,-0.0444,-0.044,-0.0439,-0.0417,-0.0396,-0.0335,-0.0305,-0.0243,-0.0183,-0.0099,-0.0065,0.0077,0.0043,0.0122,0.0187,0.0192,0.0188,0.0207,0.0239,0.0255,0.0254,0.0253,0.0252,0.0251,0,-0.0509,-0.0495,-0.0513,-0.0505,-0.0478,-0.0482,-0.0468,-0.0423,-0.0411,-0.0344,-0.0327,-0.0219,-0.0166,-0.0053,0.0081,0.008,0.0231,0.0251,0.0303,0.0301,0.0321,0.0319,0.0351,0.0351,0.035,0.035,0.035,0,-0.0543,-0.0556,-0.0546,-0.0555,-0.0581,-0.0538,-0.0552,-0.0524,-0.048,-0.0464,-0.0366,-0.0326,-0.0161,-0.0053,0.0067,0.0202,0.0225,0.0299,0.0324,0.0298,0.0292,0.0327,0.0323,0.0353,0.0353,0.0352,0.0351,0,-0.0595,-0.0586,-0.0611,-0.0606,-0.061,-0.0632,-0.0619,-0.0621,-0.0573,-0.0548,-0.0529,-0.0401,-0.026,-0.0099,0.0092,0.0176,0.0313,0.0358,0.0307,0.0328,0.0354,0.0347,0.0422,0.0421,0.0421,0.0421,0.0421,0,-0.0618,-0.0638,-0.0669,-0.0697,-0.0701,-0.0719,-0.0729,-0.0682,-0.0672,-0.0591,-0.0579,-0.0444,-0.0344,-0.0095,0.007,0.0289,0.0322,0.0384,0.038,0.0345,0.0363,0.0356,0.0349,0.0421,0.042,0.042,0.042,0,-0.0664,-0.0687,-0.071,-0.0778,-0.0808,-0.0821,-0.0823,-0.082,-0.0753,-0.0717,-0.0606,-0.0463,-0.0306,-0.0104,0.0063,0.0223,0.0336,0.0383,0.0384,0.0382,0.0345,0.0361,0.0354,0.042,0.042,0.042,0.042,0,-0.0703,-0.0741,-0.0791,-0.0841,-0.0892,-0.0905,-0.0891,-0.0846,-0.0816,-0.0707,-0.0673,-0.0484,-0.0364,-0.0138,0.0017,0.0165,0.0206,0.0249,0.0259,0.0261,0.0186,0.0114,0.0139,0,0,0,0,0,-0.073,-0.0777,-0.0843,-0.0898,-0.0952,-0.0967,-0.0947,-0.0913,-0.0847,-0.0777,-0.0716,-0.0561,-0.0311,-0.0197,-0.0052,-0.0003,0.0213,0.0169,0.0262,0.0416,0.0417,0.0353,0,0,0,0,0,0,-0.0749,-0.082,-0.0852,-0.0937,-0.0981,-0.1018,-0.0999,-0.0946,-0.0882,-0.0801,-0.066,-0.0559,-0.0313,-0.0408,-0.0066,-0.0019,0.0055,0.0296,0.0299,0.0416,0.0416,0.0417,0.0351,0,0,0,0,0]}]]